Temp_Advection
nan nan nan nan nan nan nan nan nan nan nan nan nan nan nan nan nan nan nan nan nan nan nan nan nan nan nan nan nan nan nan nan nan nan nan nan nan nan nan nan nan nan nan
nan 0 0 0 0 -0 0 -1 -0 -0 -0 -0 0 0 0 0 0 0 0 0 0 -0 -0 -0 0 0 0 0 0 0 0 0 0 0 0 0 0 0 -0 -0 -0 -0 nan
nan 0 0 0 -1 -0 -0 -0 0 0 0 0 1 0 0 0 0 0 0 0 0 0 0 0 0 0 0 0 0 0 0 -0 0 0 0 0 0 0 -0 0 0 0 nan
nan 0 -0 -0 -0 0 -0 0 1 0 0 0 0 1 0 0 0 0 0 0 0 0 0 0 0 -0 0 0 0 0 0 -0 -0 0 0 0 0 -0 -0 -0 0 0 nan
nan 1 0 0 1 1 1 1 0 0 1 0 1 0 0 0 0 0 0 0 0 0 0 0 -0 0 0 0 0 0 0 0 0 0 0 0 0 0 0 0 0 0 nan
nan 0 0 0 1 1 0 0 0 1 0 0 0 0 0 0 0 0 0 0 0 0 0 0 0 0 0 0 0 0 0 0 0 -0 -0 0 0 -0 0 0 0 0 nan
nan 0 0 0 1 0 -0 0 1 1 0 0 0 1 0 0 -0 -0 0 0 0 0 0 0 0 0 0 0 0 0 0 0 0 -0 0 0 -0 -0 0 0 0 0 nan
nan -0 -1 0 0 -0 -0 1 1 0 -0 0 1 0 0 -0 -0 0 1 1 1 0 0 0 0 0 0 0 0 0 0 0 0 0 0 0 0 0 0 0 0 0 nan
nan -1 0 1 1 -0 0 1 1 0 0 1 1 0 0 -0 0 1 1 1 1 0 0 0 0 0 0 0 0 0 0 0 0 0 0 0 0 0 0 0 0 0 nan
nan 1 2 1 0 1 1 1 1 0 1 1 1 0 0 -0 0 1 1 1 1 0 0 0 -0 0 0 0 0 0 0 0 0 0 0 0 0 0 0 0 -0 0 nan
nan 1 1 0 1 1 1 1 0 1 1 1 1 1 0 0 1 1 1 1 1 0 0 0 -0 0 0 1 0 0 0 0 0 0 0 0 0 0 0 0 0 0 nan
nan 0 0 1 0 0 0 1 1 1 0 1 1 1 0 1 0 1 1 1 1 1 1 -0 0 1 1 1 0 0 0 0 0 0 0 0 0 0 0 0 1 0 nan
nan 0 0 0 0 0 1 1 0 0 0 1 1 0 0 0 -0 -0 0 1 1 1 0 0 0 0 1 0 0 0 0 -0 0 0 0 0 0 0 0 0 0 0 nan
nan 0 0 0 0 1 1 0 -0 0 -0 -0 -0 -1 -0 -1 -2 -1 -0 0 0 0 0 0 0 -0 -0 0 0 0 0 0 -0 0 0 0 0 0 0 0 0 0 nan
nan 0 1 0 0 0 0 0 0 -0 -0 -0 -1 -1 -1 -2 -2 0 1 1 1 1 1 0 0 -1 -1 -0 -0 0 0 0 0 0 0 0 0 0 1 0 -0 0 nan
nan 0 0 0 0 0 0 0 0 0 0 -0 -0 0 -0 -1 -0 0 1 1 2 2 1 0 -1 -1 -1 -0 -0 0 0 0 1 1 1 0 0 0 1 0 -0 -0 nan
nan 0 0 0 0 0 0 1 1 0 -0 -0 1 1 -1 -1 0 0 1 1 2 2 1 -1 -0 -0 -0 0 0 -0 -0 1 1 0 0 0 0 0 0 0 1 0 nan
nan 0 0 0 0 0 0 1 1 -0 0 0 0 0 0 0 0 0 1 1 1 0 -1 -1 -0 -0 0 0 0 0 0 0 0 0 0 0 0 1 0 0 1 1 nan
nan 0 0 0 0 0 0 0 0 0 0 0 0 0 0 0 0 0 1 -0 -1 -0 0 0 0 1 0 -0 0 1 0 0 0 0 0 0 0 0 0 0 0 1 nan
nan 0 0 0 0 0 0 0 0 0 0 0 -0 0 1 0 -0 -0 -0 -0 -0 -0 -0 -0 1 1 1 0 -0 0 0 0 0 0 0 0 1 1 0 0 0 0 nan
nan -0 -0 0 0 0 0 0 -0 -0 -0 0 0 -0 0 0 0 0 -1 -1 -1 0 1 1 1 1 1 1 1 0 -1 -0 0 0 -0 0 1 0 0 0 1 0 nan
nan -1 -0 -0 -0 0 0 0 0 -0 0 0 0 0 0 0 0 -0 -0 -1 -0 1 0 0 0 1 1 1 1 1 0 -0 0 0 0 0 -0 0 1 0 0 0 nan
nan -1 -1 -1 -0 -0 -0 -0 0 0 0 0 -0 0 0 0 0 1 0 -1 -0 0 1 1 -0 -1 0 1 1 1 1 -0 -0 1 1 0 0 -0 -0 0 0 0 nan
nan -0 -1 -1 -0 -0 -0 -0 -0 -0 -0 0 0 0 0 -0 0 0 0 -1 -0 1 0 1 1 -1 -1 0 1 1 1 0 0 0 1 1 0 0 0 -0 0 1 nan
nan -0 -0 -0 -0 -1 -1 -1 -1 -1 -0 -0 0 0 0 0 0 0 0 0 1 0 0 -0 1 1 -0 -0 0 1 1 1 1 0 0 -0 -0 0 0 -0 -1 0 nan
nan nan nan nan nan nan nan nan nan nan nan nan nan nan nan nan nan nan nan nan nan nan nan nan nan nan nan nan nan nan nan nan nan nan nan nan nan nan nan nan nan nan nan
Wind_Speed
38 35 33 30 29 27 26 24 22 21 20 19 19 19 19 18 18 17 16 16 15 16 16 15 12 10 10 9 9 9 10 10 8 8 8 4 0 2 5 6 10 12 13
36 35 34 32 32 31 27 27 22 22 20 19 19 19 19 19 18 16 16 17 17 16 15 14 13 12 10 10 8 6 8 9 6 6 3 1 5 4 4 3 2 12 14
38 38 36 36 36 32 29 27 23 23 21 21 20 20 20 19 18 17 17 17 16 16 14 14 13 12 11 9 8 7 7 9 6 3 5 6 4 5 4 4 7 4 9
39 39 39 39 37 32 30 28 25 24 23 22 21 21 20 20 18 19 18 18 18 17 16 15 14 13 10 9 8 6 5 6 7 7 2 2 4 4 3 5 5 6 11
47 43 41 39 37 34 31 29 26 25 24 23 22 22 22 21 20 20 19 19 19 19 18 17 16 12 11 9 8 7 6 5 5 5 5 5 6 5 2 7 9 10 11
43 40 39 38 37 34 32 30 28 27 26 24 24 24 24 23 21 21 20 20 20 19 19 18 15 13 12 10 8 7 6 6 7 7 9 6 12 9 6 7 7 6 9
46 40 37 38 37 35 35 32 31 30 28 26 25 26 25 24 23 22 20 20 20 19 20 17 16 15 14 12 10 9 8 8 7 8 9 10 11 9 8 8 7 6 4
45 39 40 36 39 39 36 34 33 31 30 28 28 27 25 27 25 23 22 22 21 20 20 17 18 16 15 13 13 11 10 10 10 9 9 7 10 9 9 7 7 7 10
45 48 44 39 41 42 39 36 34 33 32 31 30 28 27 28 27 24 25 24 22 21 21 19 20 17 16 15 14 13 13 11 10 9 8 8 8 8 9 9 9 9 9
45 46 43 40 36 39 38 37 35 32 32 31 30 30 28 28 27 26 28 28 25 23 22 21 21 19 17 17 16 14 14 11 11 10 9 9 9 9 10 10 10 9 9
36 36 38 37 36 34 35 36 36 33 33 32 30 29 29 30 28 27 30 30 27 25 25 25 23 22 18 18 17 17 16 13 12 11 11 11 9 9 9 9 11 11 11
32 30 33 34 34 34 33 34 35 35 34 32 30 29 28 31 28 27 30 31 27 26 26 24 23 22 21 19 20 20 17 17 14 14 14 13 13 12 13 12 12 12 12
27 31 29 31 32 31 32 33 35 34 33 32 32 31 31 31 30 29 29 32 31 26 24 24 23 21 20 23 24 22 21 21 19 18 17 16 15 14 14 14 14 13 13
18 24 24 30 28 26 30 32 34 34 35 35 34 34 33 31 32 29 31 33 36 33 30 27 26 25 23 24 27 26 25 24 23 21 20 18 17 16 16 15 15 14 15
18 23 25 23 24 26 27 29 33 34 35 36 35 34 35 34 33 28 29 34 39 39 37 32 31 31 29 28 29 29 27 27 27 25 23 22 21 19 17 17 17 17 18
6 17 23 25 26 28 27 27 30 31 33 33 32 31 33 30 28 26 21 24 33 40 41 40 38 37 34 32 32 31 30 29 29 27 27 26 24 23 20 19 21 21 20
5 11 9 14 18 24 25 28 31 31 32 31 32 31 32 30 26 24 19 19 24 36 45 43 41 41 39 36 34 34 33 30 27 29 29 28 27 25 24 23 23 24 24
1 4 7 13 14 20 22 24 29 34 34 33 29 34 32 33 29 24 19 20 27 32 41 44 44 43 41 38 36 34 33 32 31 30 30 29 29 28 28 28 27 27 26
2 4 3 4 9 16 18 24 30 28 27 33 34 33 37 34 33 28 25 29 30 33 35 39 42 43 43 40 37 36 35 33 32 32 31 30 30 30 31 31 29 29 28
0 3 4 3 6 9 11 16 25 27 26 25 30 34 38 40 40 39 36 35 35 35 34 35 37 39 40 40 39 37 37 36 34 34 33 31 31 31 32 33 33 32 32
7 5 5 10 7 7 11 15 19 21 24 26 26 27 26 33 42 45 43 41 39 39 37 35 35 37 38 38 38 38 39 38 36 35 33 32 32 34 33 33 34 35 35
18 11 6 6 9 13 12 14 14 14 15 22 26 27 27 24 26 36 43 44 42 41 40 38 36 35 34 35 37 38 40 41 39 38 35 34 34 33 34 34 35 36 37
21 19 14 9 7 8 9 13 18 17 16 13 15 17 21 23 23 25 31 33 36 39 41 41 40 37 34 32 32 33 36 39 37 34 33 33 33 34 35 35 35 37 37
16 18 19 18 14 10 7 8 9 13 18 21 19 19 19 17 19 21 24 26 29 30 30 31 35 38 34 33 31 30 31 31 32 32 31 31 32 32 33 35 35 36 37
12 13 15 17 18 17 14 11 8 8 12 14 15 15 14 17 20 23 25 26 30 30 30 29 29 29 31 31 30 29 28 28 30 32 33 32 32 31 32 34 36 37 37
10 9 9 10 12 13 14 14 13 11 10 8 9 12 15 19 19 19 22 24 26 32 28 29 28 27 28 30 31 31 32 32 32 32 31 32 33 33 33 35 36 38 39
Wind_Direction
188 189 196 193 191 194 198 197 201 201 199 194 195 194 192 191 190 193 195 194 189 188 184 189 189 189 188 186 187 185 175 192 215 211 250 281 357 245 329 7 342 350 4
188 191 196 193 192 200 197 198 202 201 198 196 196 194 191 191 189 189 189 188 187 187 186 186 186 190 189 187 188 179 166 189 223 211 263 315 306 349 36 72 57 312 334
190 192 196 193 198 200 199 201 201 200 198 197 196 195 193 193 192 186 191 190 189 191 189 190 191 188 190 191 184 178 176 176 191 223 191 257 306 342 11 352 355 278 314
187 195 198 198 202 201 201 204 202 201 201 200 198 197 197 197 194 192 194 194 194 192 191 193 193 195 196 194 193 188 186 176 177 196 250 280 280 328 176 199 280 315 255
194 197 200 199 202 201 203 205 202 203 203 203 201 199 201 199 197 199 200 200 198 197 196 198 202 202 202 204 198 203 200 187 172 179 211 246 284 304 245 252 224 222 267
187 195 200 198 201 201 203 206 205 204 204 204 204 206 203 200 202 207 208 203 205 204 202 207 203 200 200 204 207 206 216 205 192 186 226 223 248 262 252 254 261 229 237
192 196 203 201 200 202 205 207 207 205 204 206 208 210 207 202 207 211 210 208 209 207 211 209 206 205 206 208 210 213 214 217 220 223 229 226 246 259 271 259 252 250 221
189 188 204 203 201 206 208 209 209 207 207 210 211 213 209 208 212 213 210 209 211 211 216 211 215 211 213 213 216 219 219 221 228 236 250 256 253 271 265 265 248 243 247
197 203 209 212 204 207 209 208 210 209 210 213 214 214 214 214 215 213 207 207 211 213 217 215 220 215 215 214 220 223 223 224 224 240 253 265 273 274 270 266 265 260 250
202 202 203 203 210 211 210 208 210 212 215 215 216 218 219 220 217 213 207 209 210 213 216 220 225 222 219 217 224 228 236 230 231 241 251 260 269 271 266 267 270 271 263
197 191 194 208 212 212 210 210 213 213 215 216 217 219 220 224 220 215 209 209 213 217 219 221 224 230 220 220 225 231 237 243 246 246 253 258 264 266 269 272 270 269 271
200 193 202 207 207 210 214 215 215 215 215 215 213 218 219 226 221 217 212 211 213 222 225 227 232 229 227 222 226 236 240 249 247 253 258 263 270 278 288 292 283 275 276
202 204 199 199 206 214 215 210 212 215 213 213 210 213 219 223 225 219 215 211 212 215 223 231 237 235 225 224 229 233 237 244 249 252 259 263 265 270 273 279 283 276 273
190 194 198 195 198 200 204 211 217 216 214 216 215 215 220 220 231 222 216 212 210 211 216 218 230 235 234 230 233 235 238 243 250 255 259 261 260 261 268 274 282 284 275
206 202 207 200 201 198 207 215 222 225 223 219 222 223 223 226 236 234 227 218 214 217 219 217 224 231 233 232 234 239 241 243 247 252 254 257 261 263 265 268 275 280 282
226 212 213 207 212 214 214 215 227 231 228 226 231 234 236 241 244 249 241 232 227 220 222 224 229 236 240 242 243 245 248 249 251 252 253 256 258 262 265 266 270 274 279
135 218 228 219 220 225 230 232 230 233 235 235 231 229 236 245 245 246 242 230 227 225 224 230 236 239 244 247 249 250 254 256 255 254 255 254 256 259 259 262 264 267 273
91 143 223 236 240 238 236 236 236 239 236 229 228 222 229 238 239 239 236 226 224 222 230 233 237 244 247 249 251 253 256 258 257 255 255 257 258 257 259 261 263 265 270
227 143 172 176 228 235 237 235 234 237 235 238 234 232 227 231 237 237 234 234 234 234 234 234 237 240 247 252 254 256 258 259 262 262 260 259 260 260 262 261 263 266 267
347 204 197 175 195 229 243 247 244 245 245 240 244 245 238 229 230 231 230 233 238 242 244 244 245 245 245 250 256 258 260 262 261 261 261 260 260 261 262 265 265 266 268
346 302 259 247 243 233 231 237 250 249 244 242 245 254 257 241 237 237 238 239 243 248 250 250 250 250 252 252 255 259 262 264 264 263 264 265 262 261 262 264 266 268 269
26 14 332 281 247 239 238 239 245 244 241 250 251 252 260 264 249 242 243 246 250 252 255 257 258 259 259 259 258 259 262 266 268 268 268 268 268 268 265 264 264 265 268
30 29 24 5 309 284 256 244 242 248 251 252 247 246 245 256 258 258 253 251 253 255 255 256 258 262 265 266 263 261 260 263 268 271 271 270 269 270 271 268 267 266 266
27 30 27 25 24 12 340 292 271 253 250 250 255 258 259 256 259 265 266 264 261 263 262 261 259 259 264 267 268 266 263 264 266 268 268 267 268 270 269 270 269 268 268
6 17 28 27 23 26 24 16 353 306 279 268 256 248 250 252 248 253 257 257 256 259 266 266 262 261 258 260 263 265 265 264 264 266 268 267 267 267 268 269 270 271 269
0 358 2 12 26 31 29 30 29 22 8 343 310 284 263 254 259 265 267 266 262 249 245 246 249 255 259 258 257 256 259 263 265 263 261 263 266 267 266 267 269 271 272
Height
1502 1510 1515 1522 1528 1533 1536 1539 1542 1545 1548 1550 1552 1556 1559 1562 1565 1567 1571 1574 1576 1579 1581 1582 1584 1586 1588 1590 1590 1590 1592 1592 1593 1593 1594 1594 1594 1593 1592 1591 1590 1589 1587
1499 1506 1512 1519 1524 1528 1533 1536 1539 1543 1546 1548 1550 1554 1557 1560 1562 1565 1569 1572 1574 1577 1579 1581 1582 1584 1587 1588 1588 1590 1590 1591 1591 1592 1592 1592 1592 1592 1591 1591 1591 1587 1588
1497 1503 1509 1515 1519 1525 1530 1533 1536 1540 1544 1545 1548 1552 1555 1559 1560 1563 1566 1570 1573 1576 1578 1580 1582 1583 1586 1587 1588 1589 1589 1590 1591 1590 1591 1591 1591 1591 1590 1591 1591 1590 1587
1494 1499 1504 1510 1515 1521 1525 1529 1533 1537 1540 1543 1546 1550 1553 1556 1559 1561 1564 1568 1571 1574 1575 1578 1581 1581 1584 1586 1586 1587 1588 1588 1590 1590 1590 1590 1590 1590 1589 1590 1590 1589 1588
1484 1491 1498 1506 1511 1517 1521 1525 1529 1534 1538 1541 1544 1547 1551 1554 1557 1558 1562 1566 1569 1571 1573 1575 1578 1580 1583 1584 1585 1586 1587 1587 1587 1588 1588 1588 1587 1587 1587 1587 1587 1587 1586
1480 1487 1493 1501 1507 1512 1516 1521 1525 1530 1534 1537 1540 1544 1548 1551 1554 1556 1560 1563 1567 1569 1571 1573 1576 1578 1580 1582 1584 1584 1586 1586 1587 1588 1587 1587 1586 1585 1585 1584 1584 1584 1584
1475 1482 1487 1496 1502 1507 1511 1516 1520 1525 1529 1533 1537 1540 1545 1547 1550 1553 1557 1560 1563 1566 1569 1572 1574 1575 1577 1580 1581 1582 1583 1584 1585 1586 1585 1585 1584 1582 1582 1582 1581 1581 1581
1472 1477 1481 1490 1496 1501 1506 1510 1516 1521 1524 1528 1532 1536 1542 1544 1546 1550 1554 1557 1560 1563 1565 1569 1570 1573 1574 1577 1578 1579 1581 1581 1582 1583 1583 1582 1581 1581 1579 1579 1579 1578 1578
1466 1471 1475 1481 1489 1493 1499 1505 1511 1515 1520 1524 1528 1532 1536 1539 1543 1547 1551 1554 1556 1560 1562 1565 1566 1569 1571 1574 1575 1576 1577 1578 1579 1580 1580 1580 1579 1579 1577 1576 1576 1575 1574
1460 1466 1472 1476 1484 1488 1495 1501 1506 1512 1516 1520 1525 1529 1532 1535 1539 1543 1547 1550 1553 1556 1559 1561 1563 1566 1568 1570 1571 1572 1573 1575 1576 1577 1577 1577 1576 1575 1575 1574 1573 1572 1571
1461 1466 1469 1474 1483 1487 1492 1498 1503 1507 1512 1516 1520 1524 1528 1530 1534 1539 1542 1545 1549 1552 1554 1556 1558 1561 1564 1566 1567 1568 1570 1571 1572 1573 1573 1573 1573 1573 1572 1571 1571 1569 1568
1458 1464 1468 1472 1478 1483 1489 1495 1499 1503 1507 1511 1516 1519 1523 1525 1530 1534 1538 1542 1545 1548 1550 1552 1554 1557 1560 1562 1563 1564 1566 1567 1568 1568 1569 1569 1569 1568 1568 1567 1567 1566 1565
1457 1462 1467 1472 1475 1481 1485 1491 1495 1499 1503 1507 1510 1514 1517 1521 1525 1529 1533 1537 1540 1543 1547 1548 1549 1552 1555 1556 1558 1560 1562 1562 1563 1564 1565 1565 1565 1565 1565 1564 1564 1563 1562
1457 1461 1466 1470 1475 1479 1483 1487 1491 1494 1499 1502 1505 1508 1512 1516 1517 1523 1526 1531 1535 1538 1541 1543 1545 1547 1549 1551 1552 1554 1556 1558 1558 1559 1560 1561 1561 1561 1561 1561 1560 1559 1557
1458 1462 1466 1469 1473 1477 1480 1484 1487 1491 1494 1497 1500 1503 1505 1508 1509 1514 1519 1522 1526 1530 1534 1536 1538 1540 1541 1543 1545 1547 1550 1551 1552 1553 1554 1555 1555 1555 1556 1556 1555 1554 1553
1458 1460 1462 1461 1467 1475 1477 1482 1485 1489 1492 1495 1498 1501 1503 1506 1508 1510 1515 1519 1523 1526 1526 1528 1530 1533 1534 1536 1538 1541 1542 1544 1546 1547 1548 1549 1549 1550 1551 1551 1550 1548 1548
1456 1459 1461 1463 1467 1470 1472 1475 1479 1485 1488 1491 1495 1497 1500 1502 1504 1506 1510 1513 1516 1520 1518 1520 1522 1524 1526 1529 1532 1533 1535 1538 1541 1541 1542 1542 1543 1544 1544 1544 1544 1543 1541
1459 1459 1461 1464 1466 1469 1473 1473 1477 1480 1483 1485 1489 1493 1496 1498 1500 1502 1506 1509 1508 1509 1511 1512 1514 1516 1519 1521 1524 1525 1528 1530 1531 1533 1534 1535 1536 1537 1536 1536 1536 1536 1536
1461 1461 1462 1463 1465 1467 1469 1470 1476 1476 1476 1479 1483 1487 1491 1495 1497 1498 1501 1500 1501 1501 1503 1504 1506 1509 1510 1513 1516 1518 1520 1522 1523 1524 1526 1528 1528 1529 1529 1529 1529 1529 1530
1461 1462 1462 1463 1461 1464 1466 1468 1471 1471 1472 1474 1477 1478 1482 1487 1488 1489 1490 1491 1492 1493 1496 1498 1500 1502 1504 1505 1507 1510 1511 1513 1515 1516 1517 1519 1520 1520 1521 1522 1523 1522 1521
1460 1459 1459 1460 1461 1461 1463 1464 1466 1466 1467 1469 1470 1471 1473 1476 1478 1481 1482 1483 1484 1485 1487 1490 1493 1494 1496 1499 1500 1501 1502 1504 1506 1508 1509 1510 1511 1510 1511 1512 1513 1514 1514
1461 1459 1459 1459 1459 1459 1460 1461 1462 1463 1463 1465 1466 1466 1467 1468 1469 1472 1473 1477 1479 1481 1483 1483 1484 1486 1489 1491 1492 1493 1493 1494 1496 1498 1501 1502 1502 1503 1503 1503 1503 1502 1504
1465 1463 1461 1459 1458 1458 1457 1457 1458 1459 1460 1460 1460 1461 1461 1461 1463 1466 1468 1469 1472 1474 1476 1476 1477 1478 1479 1482 1484 1484 1484 1484 1486 1489 1491 1492 1492 1492 1493 1493 1494 1494 1493
1468 1466 1464 1462 1459 1456 1453 1453 1453 1454 1455 1455 1456 1456 1457 1456 1458 1461 1463 1463 1464 1465 1468 1469 1470 1471 1471 1473 1474 1476 1477 1477 1478 1480 1481 1482 1482 1482 1481 1481 1482 1483 1484
1471 1468 1466 1464 1461 1456 1454 1452 1451 1450 1451 1451 1450 1448 1451 1453 1453 1455 1456 1457 1459 1459 1460 1461 1462 1463 1465 1465 1466 1468 1469 1470 1471 1472 1472 1472 1472 1472 1472 1471 1471 1471 1473
1473 1472 1470 1466 1464 1461 1458 1455 1453 1451 1450 1448 1447 1447 1447 1447 1448 1448 1449 1449 1450 1450 1451 1452 1453 1455 1457 1457 1458 1459 1460 1460 1461 1463 1463 1462 1461 1461 1461 1461 1462 1461 1461